Regional Weather Roundup
Issued by NWS Charleston, WV

Home | Current Version | Previous Version | Graphics & Text | Print | Product List | Glossary On
Versions: 1 2 3 4 5 6 7 8 9 10 11 12 13 14 15 16 17 18 19 20 21 22 23 24 25 26 27 28 29 30 31 32 33 34 35 36 37 38 39 40 41 42 43 44 45 46 47 48 49 50
000
ASUS41 KRLX 061410
RWRRLX
West Virginia Regional Weather Roundup
National Weather Service Charleston WV
1000 AM EDT MON JUL 06 2015

Note: "fair" indicates few or no clouds below 12,000 feet with no
significant weather and/or obstructions to visibility.

WVZ003-061500-
Northern Panhandle of West Virginia

CITY           SKY/WX    TMP DP  RH WIND       PRES   REMARKS
WHEELING       CLOUDY    75  67  76 CALM      30.09S
$$

WVZ009-061500-
Northwest West Virginia

CITY           SKY/WX    TMP DP  RH WIND       PRES   REMARKS
PARKERSBURG    CLOUDY    73  66  78 SW3       30.11S
$$

WVZ006-061500-
Western West Virginia

CITY           SKY/WX    TMP DP  RH WIND       PRES   REMARKS
HUNTINGTON     PTSUNNY   72  68  87 W7        30.10R
$$

WVZ015-061500-
West Central West Virginia

CITY           SKY/WX    TMP DP  RH WIND       PRES   REMARKS
CHARLESTON     LGT RAIN  69  66  90 SW5       30.10S
$$

WVZ022-031-061500-
North Central West Virginia

CITY           SKY/WX    TMP DP  RH WIND       PRES   REMARKS
CLARKSBURG     LGT RAIN  71  68  90 S7        30.09F
MORGANTOWN     CLOUDY    75  66  73 SE5       30.09F
$$

WVZ025-035-042-045-061500-
Southern West Virginia

CITY           SKY/WX    TMP DP  RH WIND       PRES   REMARKS
BECKLEY        CLOUDY    67  64  90 SW7       30.17S
LOGAN            N/A    N/A N/A N/A VRB7      30.11S
BLUEFIELD      HVY RAIN  67  63  87 W6        30.20R FOG
LEWISBURG      CLOUDY    70  67  91 S3        30.16F
$$

WVZ047-061500-
Northern Mountains of West Virginia

CITY           SKY/WX    TMP DP  RH WIND       PRES   REMARKS
ELKINS         CLOUDY    69  64  84 CALM      30.14F
$$

WVZ052-061500-
Eastern Panhandle of West Virginia

CITY           SKY/WX    TMP DP  RH WIND       PRES   REMARKS
MARTINSBURG    CLOUDY    76  71  85 VRB3      30.13S
PETERSBURG     CLOUDY    73  69  86 CALM      30.12F
$$


USA.gov is the U.S. government's official web portal to all federal, state and local government web resources and services.